Location: Street
(51.1247°N, 2.7429°W)
Time: 18:48:08
(UTC+00:00)

N. Korean satellite - Pass Details

Date: 01 November 2020
Orbit: 453 x 503 km, 97.2° (Epoch: 04 December)

Event Time Altitude Azimuth Distance (km) Brightness Sun altitude
Rises 06:18:43 0° 8° (N) 2,483 10.1 -7.6°
Reaches altitude 10° 06:20:49 10° 2° (N) 1,603 9.1 -7.3°
Maximum altitude 06:24:06 45° 289° (WNW) 635 6.7 -6.8°
Drops below altitude 10° 06:27:22 10° 215° (SW) 1,593 9.0 -6.3°
Sets 06:29:27 0° 209° (SSW) 2,465 10.0 -6.0°
